Location: Seedorf
(46.8820°N, 8.6161°E)
Time: 08:58:34
(UTC+00:00)

Daily predictions for brighter satellites

Satellite Brightness Start Highest point End
(mag) Time Altitude Azimuth Time Altitude Azimuth Time Altitude Azimuth
Cosmos 1812 Rocket 4.1 16:43:53 10° NNW 16:48:21 69° W 16:52:47 10° S
Cosmos 1939 Rocket 4.5 16:49:02 10° E 16:51:19 15° ENE 16:53:38 10° NNE
SL-8 Rocket 4.3 16:48:45 10° SSE 16:54:46 49° E 17:00:45 10° NNE
Cosmos 44 3.1 16:50:25 10° SSW 16:54:57 66° ESE 16:59:21 10° NE
Cosmos 2082 4.0 16:50:02 10° S 16:55:24 49° ESE 17:00:49 10° NE
Starlink AS 4.2 16:53:03 10° NW 16:55:31 24° N 16:57:59 10° ENE
Starlink BA 4.2 16:53:15 10° NW 16:55:43 24° N 16:58:11 10° ENE
Starlink AU 4.2 16:53:29 10° NW 16:55:56 24° N 16:58:25 10° ENE
Starlink AT 4.2 16:53:43 10° NW 16:56:11 24° N 16:58:39 10° ENE
Starlink BB 4.2 16:53:56 10° NW 16:56:24 24° N 16:58:52 10° ENE
Cosmos 2219 3.5 16:50:50 10° SW 16:56:26 70° WNW 17:02:07 10° NNE
Starlink BC 4.2 16:54:10 10° NW 16:56:38 24° N 16:59:06 10° ENE
Starlink BK 4.2 16:54:23 10° NW 16:56:51 24° N 16:59:19 10° ENE
Starlink AY 4.2 16:54:36 10° NW 16:57:05 24° N 16:59:33 10° ENE
Starlink AW 4.2 16:54:49 10° NW 16:57:18 24° N 16:59:45 10° ENE
Starlink BJ 4.2 16:55:03 10° NW 16:57:32 24° N 17:00:00 10° ENE
Starlink AV 4.2 16:55:19 10° NW 16:57:47 24° N 17:00:15 10° ENE
Starlink BD 4.2 16:55:31 10° NW 16:58:00 24° N 17:00:28 10° ENE
Starlink BE 4.2 16:55:43 10° NW 16:58:13 24° N 17:00:43 10° ENE
Starlink BM 4.2 16:55:59 10° NW 16:58:27 24° N 17:00:56 10° ENE
Starlink AX 4.2 16:56:13 10° NW 16:58:41 24° N 17:01:10 10° ENE
Starlink BH 4.2 16:56:24 10° NW 16:58:52 24° N 17:01:21 10° ENE
YAOGAN 1 3.6 16:55:34 10° ESE 16:59:05 25° ENE 17:02:37 10° N
Starlink AZ 4.2 16:56:39 10° NW 16:59:07 24° N 17:01:36 10° ENE
Starlink BG 4.2 16:56:49 10° NW 16:59:18 24° N 17:01:45 10° ENE
Starlink BF 4.2 16:57:04 10° NW 16:59:33 24° N 17:02:01 10° ENE
Starlink BL 4.2 16:57:15 10° NW 16:59:45 24° N 17:02:14 10° ENE
Starlink AH 4.2 16:57:32 10° NW 17:00:01 24° N 17:02:27 10° ENE
Starlink AC 4.2 16:57:47 10° NW 17:00:16 24° N 17:02:42 10° ENE
Cosmos 2297 Rocket 2.3 16:54:39 10° SSW 17:00:19 89° WNW 17:06:02 10° NNE
Starlink AQ 4.2 16:57:51 10° NW 17:00:21 24° N 17:02:48 10° ENE
Starlink X 4.2 16:57:56 10° NW 17:00:24 24° N 17:02:51 10° ENE
Starlink AE 4.2 16:58:09 10° NW 17:00:40 24° N 17:03:08 10° ENE
USA 234 3.3 16:54:08 10° ESE 17:00:40 80° NNE 17:07:13 10° NW
Starlink Z 4.2 16:58:25 10° NW 17:00:54 24° N 17:03:19 10° ENE
Starlink D 4.3 16:58:09 10° NW 17:00:59 27° N 17:03:44 10° ENE
Starlink AK 4.2 16:58:41 10° NW 17:01:09 24° N 17:03:33 10° ENE
Starlink AL 4.2 16:58:55 10° NW 17:01:23 24° N 17:03:47 11° ENE
Starlink AD 4.2 16:59:06 10° NW 17:01:35 24° N 17:03:58 11° ENE
Starlink Y 4.2 16:59:32 10° NW 17:02:01 24° N 17:04:23 11° ENE
Starlink AG 4.2 16:59:44 10° NW 17:02:13 24° N 17:04:34 11° ENE
Starlink W 4.2 16:59:58 10° NW 17:02:28 24° N 17:04:51 11° ENE
Starlink AJ 4.2 17:00:12 10° NW 17:02:41 24° N 17:05:01 11° ENE
Starlink AM 4.2 17:00:43 10° NW 17:03:11 24° N 17:05:30 11° ENE
Starlink S 4.3 17:00:22 10° NW 17:03:11 27° N 17:05:52 11° ENE
Starlink AP 4.2 17:00:52 10° NW 17:03:21 24° N 17:05:40 11° ENE
Starlink AA 4.2 17:01:10 10° NW 17:03:39 24° N 17:05:57 11° ENE
Starlink AF 4.2 17:01:18 10° NW 17:03:48 24° N 17:06:05 11° ENE
Starlink AB 4.2 17:01:36 10° NW 17:04:05 24° N 17:06:22 11° ENE
Starlink AN 4.2 17:01:46 10° NW 17:04:15 24° N 17:06:31 11° ENE
Starlink C 4.3 17:02:31 10° NW 17:05:21 27° N 17:07:55 12° ENE
Ariane Rocket 4.5 17:02:35 10° E 17:05:34 16° ENE 17:08:34 10° NNE
Cosmos 2263 Rocket 3.9 17:05:07 10° ESE 17:07:21 12° E 17:09:20 11° ENE
Starlink E 4.3 17:04:44 10° NW 17:07:34 27° N 17:10:03 12° ENE
YAOGAN 6 2.7 17:05:54 10° SSE 17:09:29 56° ENE 17:13:03 10° N
Starlink J 4.2 17:06:57 10° NW 17:09:48 27° N 17:12:11 13° ENE
H-2A R/B 3.9 17:06:32 10° S 17:10:17 49° W 17:14:07 10° NNW
ADEOS Rocket 4.4 17:05:14 10° NE 17:10:26 22° E 17:15:55 10° SE
Starlink V 4.2 17:09:10 10° NW 17:12:01 28° N 17:14:18 14° ENE
ERBS 3.9 17:10:47 10° W 17:13:40 26° NNW 17:16:33 10° NE
Cosmos 2227 Rocket 2.4 17:08:04 10° SSW 17:13:44 79° WNW 17:19:26 10° NNE
Starlink H 4.2 17:11:24 10° NW 17:14:16 28° N 17:16:27 14° ENE
NOAA 12 4.2 17:11:02 10° SSE 17:16:15 81° WSW 17:21:33 10° NNW
Starlink F 4.2 17:13:38 10° NW 17:16:31 28° N 17:18:36 15° ENE
Cosmos 2341 Rocket 4.1 17:11:42 10° S 17:18:04 85° W 17:24:27 10° N
Starlink G 4.2 17:15:52 10° NW 17:18:45 28° N 17:20:45 16° ENE
SMAP 4.2 17:14:25 10° S 17:18:55 48° W 17:23:26 10° NNW
Starlink L 4.2 17:18:06 10° NW 17:21:00 29° N 17:22:54 17° ENE
Starlink A 4.2 17:20:21 10° NW 17:23:15 29° N 17:25:03 17° ENE
Starlink R 4.1 17:22:37 10° NW 17:25:32 29° N 17:27:14 18° ENE
Starlink K 4.1 17:24:51 10° NW 17:27:47 30° N 17:29:23 19° ENE
Cosmos 1953 Rocket 3.6 17:24:38 10° S 17:29:08 88° E 17:33:39 10° N
Cosmos 1943 4.0 17:24:24 10° N 17:29:21 30° NE 17:33:47 12° ESE
Starlink M 4.1 17:27:04 10° NW 17:30:01 30° N 17:31:31 20° ENE
Cosmos 1328 3.7 17:26:40 10° S 17:30:40 76° E 17:34:41 10° NNE
Cosmos 864 Rocket 4.4 17:24:44 10° S 17:30:48 69° E 17:36:55 10° NNE
Cosmos 1339 Rocket 4.4 17:24:41 10° N 17:30:49 87° E 17:37:00 10° S
COSMO-SKYMED 1 2.5 17:27:49 10° NNE 17:32:10 67° ESE 17:36:28 10° S
CZ-4 R/B 1.4 17:28:38 10° SSE 17:32:41 64° ENE 17:36:50 10° N
Cosmos 1842 Rocket 3.9 17:28:43 10° N 17:32:59 42° ENE 17:37:14 10° SSE
Cosmos 1758 Rocket 4.5 17:29:03 10° SSW 17:33:13 50° WNW 17:37:27 10° N
FengYun 1-2 T 4.3 17:30:18 10° SSE 17:35:57 86° WSW 17:41:40 10° NNW
Starlink AR 3.7 17:33:41 10° NW 17:36:02 27° NNE 17:36:36 24° NE
ATLAS CENTAUR R/B 1.3 17:34:53 10° NW 17:38:56 78° SW 17:42:39 10° SSE
Cosmos 2218 Rocket 4.0 17:33:50 10° S 17:40:12 87° E 17:46:39 10° N
Cosmos 44 Rocket 3.9 17:37:07 10° S 17:41:30 36° ESE 17:43:54 22° ENE
CSL-04 Debris 4.1 17:36:29 10° SSE 17:41:47 64° ENE 17:47:09 10° N
Cosmos 1140 Rocket 4.5 17:40:01 10° N 17:44:25 26° NE 17:46:04 22° E
SL-8 R/B 3.7 17:43:19 10° W 17:48:09 80° N 17:50:52 26° ENE
Shenzhou-11 Module 3.1 17:45:52 10° WSW 17:48:19 31° S 17:49:17 23° SE
Cosmos 2251 Rocket 4.0 17:45:18 10° NNW 17:50:34 66° WSW 17:55:50 10° S
USA 116 3.1 17:53:21 31° NE 17:54:33 55° ESE 17:57:37 10° S
H-2A R/B 3.1 17:55:39 24° NE 17:55:39 24° NE 17:59:20 10° N
Cosmos 1703 3.9 17:51:33 10° SSW 17:55:28 58° WNW 17:59:25 10° N
CSL-04 Rocket 3.7 17:55:25 10° SSE 18:00:57 88° ENE 18:06:33 10° NNW
ATLAS 5 CENTAUR R/B 4.2 17:58:49 10° NNW 18:01:03 13° N 18:03:10 10° NNE
Cosmos 1356 Rocket 3.6 17:57:28 10° NNW 18:01:32 70° W 18:05:37 10° S
Cosmos 1455 4.3 17:59:42 10° NNW 18:03:02 29° W 18:06:20 10° SSW
Cosmos 2221 2.4 17:59:53 10° N 18:04:09 65° E 18:08:26 10° SSE
IRS-1A Rocket 4.5 18:01:12 10° SE 18:06:39 47° ENE 18:12:00 10° N
Cosmos 2366 rocket 4.4 18:00:57 10° SSW 18:07:07 65° WNW 18:13:25 10° N
USA 267 3.7 18:03:50 19° NE 18:08:30 55° NNW 18:14:50 10° W
Cosmos 1076 Rocket 4.0 18:07:14 10° SSE 18:10:40 38° ESE 18:10:40 38° ESE
Starlink T 3.7 18:08:43 10° NW 18:11:27 40° N 18:11:27 40° N
Starlink N 3.7 18:10:44 10° NW 18:13:24 40° N 18:13:24 40° N
Starlink Q 3.8 18:12:59 10° NW 18:15:34 39° N 18:15:34 39° N
Starlink P 3.8 18:15:05 10° NW 18:17:35 39° NNW 18:17:35 39° NNW
ISS -2.8 18:16:10 10° WNW 18:19:20 37° N 18:19:20 37° N
Starlink U 3.9 18:17:09 10° NW 18:19:35 38° NNW 18:19:35 38° NNW
CZ-2D R/B 3.7 18:17:32 10° S 18:21:20 62° W 18:25:11 10° NNW
Cosmos 1371 Rocket 4.2 18:16:39 10° S 18:21:34 47° ESE 18:22:05 45° E
CENTAUR R/B 4.1 18:17:44 10° SSE 18:19:01 15° SE 18:19:01 15° SE
Cosmos 407 Rocket 3.4 18:16:39 10° NNW 18:21:56 66° ENE 18:24:47 27° SE
Starlink B 4.0 18:19:16 10° NW 18:21:37 37° NNW 18:21:37 37° NNW
Cosmos 1190 Rocket 4.0 18:17:30 10° NNW 18:22:46 59° ENE 18:24:43 37° SE
Cosmos 1869 3.8 18:19:09 10° N 18:22:05 44° NNE 18:22:05 44° NNE
Cosmos 1939 Rocket 3.5 18:21:56 10° S 18:25:48 56° W 18:29:45 10° NNW
In-Cosmos 22 Rocket 4.4 18:20:45 10° SSE 18:26:05 45° E 18:26:19 45° E
NOSS 3-2 (A) 3.7 18:22:27 10° S 18:27:48 42° ESE 18:28:18 42° ESE
SL-16 R/B 4.3 18:26:02 10° NW 18:30:41 27° WSW 18:35:19 10° SSW
YAOGAN 1 4.1 18:31:01 10° SSW 18:35:01 36° W 18:39:03 10° NNW
Cosmos 676 Rocket 4.4 18:30:00 10° NNW 18:34:34 45° NE 18:34:34 45° NE
Cosmos 2227 4.1 18:30:55 10° SSW 18:36:39 82° ESE 18:39:03 37° NNE
SJ-11-01 4.1 18:39:25 60° SE 18:40:13 78° ENE 18:44:57 10° N
Ariane Rocket 2.9 18:38:47 10° SSE 18:43:51 85° WSW 18:48:59 10° NNW
Cosmos 1603 3.9 18:38:34 10° NNW 18:44:13 69° WSW 18:48:56 15° SSE
ARGOS 3.7 18:46:23 43° NNE 18:46:23 43° NNE 18:50:19 10° N
Cosmos 2297 Rocket 4.4 18:41:08 10° W 18:45:12 20° NW 18:49:16 10° N
Cosmos 1624 Rocket 3.9 18:43:21 10° S 18:48:11 66° SE 18:48:11 66° SE
Cosmos 2263 Rocket 2.0 18:44:46 10° SSW 18:50:20 82° ESE 18:51:05 67° NE
CZ-2C R/B 3.8 18:57:36 44° NNE 18:57:36 44° NNE 19:01:37 10° N
Atlas Centaur 2 4.3 18:56:08 10° S 18:56:18 10° S 18:56:26 10° S
ADEOS Rocket 3.4 18:49:40 10° NNE 18:56:29 81° WNW 19:03:57 10° SSW
Cosmos 2056 Rocket 3.7 18:59:16 10° SSW 19:03:46 66° SSW 19:03:46 66° SSW
USA 238 DEB 3.5 19:01:33 10° SW 19:08:13 84° SE 19:08:58 72° ENE
USA 238 3.5 19:01:40 10° SSW 19:08:20 83° SE 19:09:03 73° ENE
Cosmos 1943 3.8 19:08:12 10° NW 19:13:41 53° WSW 19:15:42 35° SSW
Timation 1 Rocket 4.5 19:13:13 10° SW 19:19:10 70° WNW 19:19:34 68° NNW
Cosmos 1140 Rocket 4.2 19:21:25 10° NNW 19:26:10 50° W 19:26:10 50° W
H-2A R/B 3.4 19:36:15 34° NW 19:36:15 34° NW 19:39:25 10° NNW
ATLAS 5 CENTAUR R/B 4.4 19:43:44 10° NNW 19:44:43 14° NNW 19:44:43 14° NNW
USA 267 4.2 19:51:11 37° NNW 19:51:11 37° NNW 19:56:40 10° WNW
